(°C)
10°
(°C)
-3°
-3°
-1°
NÉN
NÉN
ÉNy
ÉNy
ÉNy
ÉNy
ÉNy
(km/h)
8-17
11-22
13-25
16-31
18-34
19-35
18-34
(mm)
0
0
0
0
0
0
0
(%)
0
0
0
0
0
0
0

Napfelkelte

/ 12.5°
sun-icon
UV 3
04:04
20:50
Hold (fogyó sarló) (279°)
02:33
12:03

METAR 55.6°É 37.27°K (UUWW)-ért

Idő Feltételek Hőmérséklet/
Harmatpont
Szél Látási viszonyok Időjárás Felhők Légnyomás Módosítás Nyers
VFR 1°C / -3°C 320º 4kt >10km - Clouds and Visibility OK 1006 No Significant change UUWW 230230Z 32002MPS CAVOK 01/M03 Q1006 R06/000070 NOSIG
VFR 1°C / -4°C 320º 4kt >10km - Clouds and Visibility OK 1006 No Significant change UUWW 230200Z 32002MPS CAVOK 01/M04 Q1006 R06/000070 NOSIG
VFR 1°C / -4°C 320º variable 300º to 030º 4kt >10km - Clouds and Visibility OK 1006 No Significant change UUWW 230130Z 32002MPS 300V030 CAVOK 01/M04 Q1006 R06/000070 NOSIG
VFR 1°C / -4°C 330º 4kt >10km - Clouds and Visibility OK 1006 No Significant change UUWW 230100Z 33002MPS CAVOK 01/M04 Q1006 R06/000070 NOSIG
VFR 1°C / -4°C 340º variable 290º to 040º 6kt >10km - Clouds and Visibility OK 1005 No Significant change UUWW 230030Z 34003MPS 290V040 CAVOK 01/M04 Q1005 R06/000070 NOSIG
VFR 2°C / -4°C 330º 6kt >10km - Clouds and Visibility OK 1005 No Significant change UUWW 230000Z 33003MPS CAVOK 02/M04 Q1005 R06/000070 NOSIG
VFR 2°C / -4°C 330º 6kt >10km - Clouds and Visibility OK 1005 No Significant change UUWW 222330Z 33003MPS CAVOK 02/M04 Q1005 R06/000070 NOSIG
VFR 3°C / -4°C 340º 4kt >10km - Clouds and Visibility OK 1005 No Significant change UUWW 222300Z 34002MPS CAVOK 03/M04 Q1005 R06/000070 NOSIG
VFR 3°C / -4°C 10º variable 330º to 040º 6kt >10km - Clouds and Visibility OK 1005 No Significant change UUWW 222230Z 01003MPS 330V040 CAVOK 03/M04 Q1005 R06/000070 NOSIG
VFR 3°C / -4°C 20º 6kt >10km - Clouds and Visibility OK 1005 No Significant change UUWW 222200Z 02003MPS CAVOK 03/M04 Q1005 R06/000070 NOSIG
VFR 3°C / -4°C 30º 8kt >10km - Clouds and Visibility OK 1005 No Significant change UUWW 222130Z 03004MPS CAVOK 03/M04 Q1005 R06/000070 NOSIG
VFR 4°C / -4°C 30º 10kt >10km - Clouds and Visibility OK 1005 No Significant change UUWW 222100Z 03005MPS CAVOK 04/M04 Q1005 R06/000070 NOSIG
VFR 5°C / -4°C 30º 10kt >10km - Clouds and Visibility OK 1005 No Significant change UUWW 222030Z 03005MPS CAVOK 05/M04 Q1005 R06/000070 NOSIG
VFR 5°C / -3°C 10º 10kt >10km - Clouds and Visibility OK 1005 No Significant change UUWW 222000Z 01005MPS CAVOK 05/M03 Q1005 R06/000070 NOSIG
VFR 6°C / -4°C 360º 10kt >10km - Clouds and Visibility OK 1005 No Significant change UUWW 221930Z 36005MPS CAVOK 06/M04 Q1005 R06/000070 NOSIG
VFR 7°C / -4°C 360º 10kt >10km - Clouds and Visibility OK 1005 No Significant change UUWW 221900Z 36005MPS CAVOK 07/M04 Q1005 R06/000070 NOSIG
VFR 7°C / -4°C 360º 8kt Gust 17kt >10km - Clouds and Visibility OK 1005 No Significant change UUWW 221830Z 36004G09MPS CAVOK 07/M04 Q1005 R06/000070 NOSIG
VFR 8°C / -5°C 350º 8kt >10km - Clouds and Visibility OK 1005 No Significant change UUWW 221800Z 35004MPS CAVOK 08/M05 Q1005 R06/000070 NOSIG
VFR 8°C / -5°C 350º 8kt >10km - Clouds and Visibility OK 1004 No Significant change UUWW 221730Z 35004MPS CAVOK 08/M05 Q1004 R06/000070 NOSIG
VFR 9°C / -6°C 360º 10kt Gust 19kt >10km - Clouds and Visibility OK 1004 No Significant change UUWW 221700Z 36005G10MPS CAVOK 09/M06 Q1004 R06/000070 NOSIG
VFR 9°C / -6°C 350º 12kt >10km - Clouds and Visibility OK 1004 No Significant change UUWW 221630Z 35006MPS CAVOK 09/M06 Q1004 R06/000070 NOSIG
VFR 10°C / -6°C 20º 14kt >10km - Clouds and Visibility OK 1003 No Significant change UUWW 221600Z 02007MPS CAVOK 10/M06 Q1003 R06/000070 NOSIG
VFR 10°C / -5°C 10º variable 320º to 040º 12kt >10km - Clouds and Visibility OK 1003 No Significant change UUWW 221530Z 01006MPS 320V040 CAVOK 10/M05 Q1003 R06/000070 NOSIG
VFR 11°C / -4°C 10º 12kt >10km - Clouds and Visibility OK 1003 No Significant change UUWW 221500Z 01006MPS CAVOK 11/M04 Q1003 R06/000070 NOSIG

VFR

1°C / -3°C

[Több]
Szél 320º 4kt
Látási viszonyok >10km
Időjárás -
Felhők Clouds and Visibility OK
Légnyomás 1006
Módosítás No Significant change
Nyers UUWW 230230Z 32002MPS CAVOK 01/M03 Q1006 R06/000070 NOSIG

VFR

1°C / -4°C

[Több]
Szél 320º 4kt
Látási viszonyok >10km
Időjárás -
Felhők Clouds and Visibility OK
Légnyomás 1006
Módosítás No Significant change
Nyers UUWW 230200Z 32002MPS CAVOK 01/M04 Q1006 R06/000070 NOSIG

VFR

1°C / -4°C

[Több]
Szél 320º variable 300º to 030º 4kt
Látási viszonyok >10km
Időjárás -
Felhők Clouds and Visibility OK
Légnyomás 1006
Módosítás No Significant change
Nyers UUWW 230130Z 32002MPS 300V030 CAVOK 01/M04 Q1006 R06/000070 NOSIG

VFR

1°C / -4°C

[Több]
Szél 330º 4kt
Látási viszonyok >10km
Időjárás -
Felhők Clouds and Visibility OK
Légnyomás 1006
Módosítás No Significant change
Nyers UUWW 230100Z 33002MPS CAVOK 01/M04 Q1006 R06/000070 NOSIG

VFR

1°C / -4°C

[Több]
Szél 340º variable 290º to 040º 6kt
Látási viszonyok >10km
Időjárás -
Felhők Clouds and Visibility OK
Légnyomás 1005
Módosítás No Significant change
Nyers UUWW 230030Z 34003MPS 290V040 CAVOK 01/M04 Q1005 R06/000070 NOSIG

VFR

2°C / -4°C

[Több]
Szél 330º 6kt
Látási viszonyok >10km
Időjárás -
Felhők Clouds and Visibility OK
Légnyomás 1005
Módosítás No Significant change
Nyers UUWW 230000Z 33003MPS CAVOK 02/M04 Q1005 R06/000070 NOSIG

VFR

2°C / -4°C

[Több]
Szél 330º 6kt
Látási viszonyok >10km
Időjárás -
Felhők Clouds and Visibility OK
Légnyomás 1005
Módosítás No Significant change
Nyers UUWW 222330Z 33003MPS CAVOK 02/M04 Q1005 R06/000070 NOSIG

VFR

3°C / -4°C

[Több]
Szél 340º 4kt
Látási viszonyok >10km
Időjárás -
Felhők Clouds and Visibility OK
Légnyomás 1005
Módosítás No Significant change
Nyers UUWW 222300Z 34002MPS CAVOK 03/M04 Q1005 R06/000070 NOSIG

VFR

3°C / -4°C

[Több]
Szél 10º variable 330º to 040º 6kt
Látási viszonyok >10km
Időjárás -
Felhők Clouds and Visibility OK
Légnyomás 1005
Módosítás No Significant change
Nyers UUWW 222230Z 01003MPS 330V040 CAVOK 03/M04 Q1005 R06/000070 NOSIG

VFR

3°C / -4°C

[Több]
Szél 20º 6kt
Látási viszonyok >10km
Időjárás -
Felhők Clouds and Visibility OK
Légnyomás 1005
Módosítás No Significant change
Nyers UUWW 222200Z 02003MPS CAVOK 03/M04 Q1005 R06/000070 NOSIG

VFR

3°C / -4°C

[Több]
Szél 30º 8kt
Látási viszonyok >10km
Időjárás -
Felhők Clouds and Visibility OK
Légnyomás 1005
Módosítás No Significant change
Nyers UUWW 222130Z 03004MPS CAVOK 03/M04 Q1005 R06/000070 NOSIG

VFR

4°C / -4°C

[Több]
Szél 30º 10kt
Látási viszonyok >10km
Időjárás -
Felhők Clouds and Visibility OK
Légnyomás 1005
Módosítás No Significant change
Nyers UUWW 222100Z 03005MPS CAVOK 04/M04 Q1005 R06/000070 NOSIG

VFR

5°C / -4°C

[Több]
Szél 30º 10kt
Látási viszonyok >10km
Időjárás -
Felhők Clouds and Visibility OK
Légnyomás 1005
Módosítás No Significant change
Nyers UUWW 222030Z 03005MPS CAVOK 05/M04 Q1005 R06/000070 NOSIG

VFR

5°C / -3°C

[Több]
Szél 10º 10kt
Látási viszonyok >10km
Időjárás -
Felhők Clouds and Visibility OK
Légnyomás 1005
Módosítás No Significant change
Nyers UUWW 222000Z 01005MPS CAVOK 05/M03 Q1005 R06/000070 NOSIG

VFR

6°C / -4°C

[Több]
Szél 360º 10kt
Látási viszonyok >10km
Időjárás -
Felhők Clouds and Visibility OK
Légnyomás 1005
Módosítás No Significant change
Nyers UUWW 221930Z 36005MPS CAVOK 06/M04 Q1005 R06/000070 NOSIG

VFR

7°C / -4°C

[Több]
Szél 360º 10kt
Látási viszonyok >10km
Időjárás -
Felhők Clouds and Visibility OK
Légnyomás 1005
Módosítás No Significant change
Nyers UUWW 221900Z 36005MPS CAVOK 07/M04 Q1005 R06/000070 NOSIG

VFR

7°C / -4°C

[Több]
Szél 360º 8kt Gust 17kt
Látási viszonyok >10km
Időjárás -
Felhők Clouds and Visibility OK
Légnyomás 1005
Módosítás No Significant change
Nyers UUWW 221830Z 36004G09MPS CAVOK 07/M04 Q1005 R06/000070 NOSIG

VFR

8°C / -5°C

[Több]
Szél 350º 8kt
Látási viszonyok >10km
Időjárás -
Felhők Clouds and Visibility OK
Légnyomás 1005
Módosítás No Significant change
Nyers UUWW 221800Z 35004MPS CAVOK 08/M05 Q1005 R06/000070 NOSIG

VFR

8°C / -5°C

[Több]
Szél 350º 8kt
Látási viszonyok >10km
Időjárás -
Felhők Clouds and Visibility OK
Légnyomás 1004
Módosítás No Significant change
Nyers UUWW 221730Z 35004MPS CAVOK 08/M05 Q1004 R06/000070 NOSIG

VFR

9°C / -6°C

[Több]
Szél 360º 10kt Gust 19kt
Látási viszonyok >10km
Időjárás -
Felhők Clouds and Visibility OK
Légnyomás 1004
Módosítás No Significant change
Nyers UUWW 221700Z 36005G10MPS CAVOK 09/M06 Q1004 R06/000070 NOSIG

VFR

9°C / -6°C

[Több]
Szél 350º 12kt
Látási viszonyok >10km
Időjárás -
Felhők Clouds and Visibility OK
Légnyomás 1004
Módosítás No Significant change
Nyers UUWW 221630Z 35006MPS CAVOK 09/M06 Q1004 R06/000070 NOSIG

VFR

10°C / -6°C

[Több]
Szél 20º 14kt
Látási viszonyok >10km
Időjárás -
Felhők Clouds and Visibility OK
Légnyomás 1003
Módosítás No Significant change
Nyers UUWW 221600Z 02007MPS CAVOK 10/M06 Q1003 R06/000070 NOSIG

VFR

10°C / -5°C

[Több]
Szél 10º variable 320º to 040º 12kt
Látási viszonyok >10km
Időjárás -
Felhők Clouds and Visibility OK
Légnyomás 1003
Módosítás No Significant change
Nyers UUWW 221530Z 01006MPS 320V040 CAVOK 10/M05 Q1003 R06/000070 NOSIG

VFR

11°C / -4°C

[Több]
Szél 10º 12kt
Látási viszonyok >10km
Időjárás -
Felhők Clouds and Visibility OK
Légnyomás 1003
Módosítás No Significant change
Nyers UUWW 221500Z 01006MPS CAVOK 11/M04 Q1003 R06/000070 NOSIG

TAF 55.6°É 37.27°K (UUWW)-ért

From till


Maximum Temperature 14ºC on . Minimum Temperature 2ºC on .
From till Wind 320º 10kt. Visibility 10km or more. Scattered Clouds 3000ft.
Temporarly from till Wind 330º 16kt. Gust 29kt.

Nyers: TAF UUWW 230157Z 2303/2403 32005MPS 9999 SCT030 TX14/2312Z TN02/2303Z TEMPO 2307/2317 33008G15MPS

Radarkép és ultrarövid távú csapadék-előrejelzés a következő helyhez: 55.6°É 37.27°K

Szitáló eső
Enyhe
Mérsékelt
Erős
Nagyon nehéz
Jégeső

A helyzetjelző helye: 55.6°É 37.27°K. Ez az animáció bemutatja a csapadékradart az elmúlt órára vonatkozóan, valamint előrejelzést az elkövetkező 1 órára. A szitáló eső vagy enyhe hóesés láthatatlan lehet a radar számára. A csapadék intenzitása színkóddal van jelölve, a világoskéktől a narancssárgáig.

Aktuális műholdas és esőképek ezen a helyen: 55.6°É 37.27°K

A helyszín jelölő a következő helyen van elhelyezve: 55.6°É 37.27°K. [Több]

A valós idejű műholdas kép ötvözi a nappali látható fényt az éjszakai infravörös sugárzással. Éjjel a kép nem sötét, mivel az infravörös sugárzás képes érzékelni a hőmérséklet-különbségeket. Sajnos az alacsony felhőket és a ködöt nehéz megkülönböztetni a talaj hőmérsékletétől, így az éjszaka folyamán szinte láthatatlanok lehetnek. A Meteosat európai műholdképei valós időben frissülnek minden 5 percben. A GOES-16/GOES-17 (Észak- és Dél-Amerika) és Himawari (Ázsia) képei 10 percenként frissülnek.

Minden jog fenntartva 2022 EUMETSAT / meteoblue. / Minden jog fenntartva 2022 meteoblue

Vissza a tetejére